Flag for U.S.A. Weather past 2 weeks in Montpelier, Vermont, U.S.A.

Now
64 °F

Mostly cloudy.


Feels Like: 64 °F
Forecast: 62 / 73 °F
Wind: 3 mph from South

Location: Knapp State Airport

Current Time: Jun 30, 2015 at 8:09:11 PM

Latest Report: Jun 30, 2015 at 6:51 PM


Visibility: 10 mi

Pressure: 29.98 "Hg

Humidity: 84%

Dew point: 59 °F

Location of MontpelierLocation

Historic Weather in Montpelier — Graph

°F

Montpelier temperature yesterday

Maximum temperature yesterday: 63 °F (at 1:51 PM)
Minimum temperature yesterday: 51 °F (at 12:51 AM)
Average temperature yesterday: 57 °F

Past Weeks' High & Low Weather Summary

 TemperatureHumidityPressure
High81 °F (Jun 23, 3:51 PM)100% (Jun 20, 5:51 AM)30.23 "Hg (Jun 20, 5:51 AM)
Low40 °F (Jun 20, 4:51 AM)25% (Jun 17, 4:51 PM)29.66 "Hg (Jun 23, 3:51 PM)
Average62 °F76%29.99 "Hg
* Reported Jun 15 6:51 PM — Jun 30 6:51 PM, Montpelier, Weather by CustomWeather, © 2015

Note: Actual official high and low records may vary slightly from our data, if they occured in-between our weather recording intervals... More about our weather records

Advertising

Montpelier weather history for previous 24 hours

 ConditionsComfort  
Time TempWeatherWind HumidityBarometerVisibility
6:51 PM
Tue, Jun 30
64 °FMostly cloudy.3 mph84%29.98 "Hg10 mi
5:51 PM64 °FOvercast.No wind84%29.99 "Hg10 mi
4:51 PM63 °FLight rain. Overcast.7 mph84%30.01 "Hg10 mi
3:51 PM65 °FLight rain. Overcast.8 mph70%30.01 "Hg10 mi
2:51 PM71 °FBroken clouds.9 mph59%30.01 "Hg10 mi
1:51 PM74 °FPassing clouds.6 mph52%30.00 "Hg10 mi
12:51 PM74 °FSunny.7 mph53%30.00 "Hg10 mi
11:51 AM72 °FSunny.No wind55%30.02 "Hg10 mi
10:51 AM69 °FSunny.3 mph59%30.03 "Hg10 mi
9:51 AM67 °FSunny.5 mph61%30.04 "Hg10 mi
8:51 AM60 °FSunny.No wind86%30.06 "Hg10 mi
7:58 AM56 °FLow clouds.No wind97%30.05 "Hg10 mi
7:00 AM54 °FFog.No wind100%30.03 "Hg1 mi
11:51 PM
Mon, Jun 29
58 °FOvercast.3 mph90%29.98 "Hg10 mi
10:59 PM58 °FOvercast.3 mph90%29.96 "Hg10 mi
9:51 PM58 °FMostly cloudy.5 mph93%29.95 "Hg10 mi
8:51 PM59 °FLight rain. Overcast.6 mph90%29.94 "Hg7 mi
Weather by CustomWeather, © 2015

See weather overviewHow to use our weather pages